Location: Clermont
(50.2608°N, 4.3172°E)
Time: 00:01:30
(UTC+00:00)

Cosmos 1802 Rocket - Pass Details

Date: 13 August 2020
Orbit: 953 x 1012 km, 82.9° (Epoch: 23 September)

Event Time Altitude Azimuth Distance (km) Brightness Sun altitude
Exits shadow 21:45:24 30° 178° (S) 1,709 4.8 -20.1°
Maximum altitude 21:48:45 78° 97° (E) 1,027 4.0 -20.4°
Drops below altitude 10° 21:55:06 10° 12° (NNE) 2,762 7.0 -20.9°
Sets 21:57:37 0° 11° (N) 3,706 7.8 -21.1°
